Temp_Advection
nan nan nan nan nan nan nan nan nan nan nan nan nan nan nan nan nan nan nan nan nan nan nan nan nan nan nan nan nan nan nan nan
nan 1 0 0 1 0 0 0 0 0 0 0 0 -0 1 1 1 1 1 0 -0 -0 0 0 0 0 0 -0 0 -0 0 nan
nan 1 0 1 0 0 0 0 0 0 0 0 0 -0 0 0 0 0 0 -0 0 -1 -1 -1 -1 -0 0 1 -0 -0 0 nan
nan 1 1 0 0 0 0 -0 -0 -0 -0 -0 0 0 0 -0 -0 0 0 -0 -0 -1 -1 -1 0 0 0 -0 -1 -0 0 nan
nan 1 0 -0 0 0 0 -0 0 0 0 -0 -0 0 -1 -1 -1 -0 -1 -1 -1 -0 -0 1 1 -0 -1 -1 -1 0 0 nan
nan 0 0 -0 -0 0 -0 0 0 -0 0 0 -0 -0 -0 0 -0 -0 -1 -1 -0 -0 0 1 -0 -0 -1 -1 -0 1 0 nan
nan 0 -0 -0 0 0 -0 0 0 0 0 0 -0 -0 -0 -1 -1 -1 -1 -1 -0 -1 0 0 0 0 -0 -0 1 1 -0 nan
nan 0 -0 -0 0 0 -0 -0 -0 0 0 0 0 -0 -1 -1 -1 -1 -1 -0 -0 0 0 0 0 -0 -1 0 1 0 -0 nan
nan 0 0 0 0 -0 -0 -1 -1 -0 -0 0 0 -0 0 0 0 -0 0 0 0 0 0 -0 -0 -1 -1 1 1 -0 -0 nan
nan 1 0 0 0 -0 -0 -0 -1 -1 -0 0 -0 0 0 0 -0 -0 0 -0 0 0 -0 -0 -0 -0 -0 0 1 -0 -0 nan
nan 1 0 0 0 0 0 -0 -1 -1 -0 -0 -0 -0 -0 -0 -0 -0 -1 0 1 1 0 -0 -1 0 -0 1 0 -0 0 nan
nan 1 0 0 0 0 0 -0 -0 -0 -1 -0 -0 -1 -0 -0 -0 -0 -0 0 1 1 -0 -2 -0 1 0 1 0 0 -0 nan
nan 0 1 0 0 0 -0 -0 -0 0 -0 -0 -0 -0 -0 -0 -0 -0 -0 0 0 -0 -1 -1 1 1 1 0 0 0 0 nan
nan 0 0 0 0 -0 0 -0 -0 0 0 0 0 0 -0 -0 -0 -0 0 0 0 0 -0 0 1 0 0 -0 0 -0 0 nan
nan 0 0 0 0 0 0 0 0 -0 0 0 0 0 0 0 -0 0 0 0 -0 -0 -0 -0 -0 -0 -0 -0 -0 0 0 nan
nan 0 0 0 0 0 0 1 0 0 0 0 0 0 0 0 0 0 0 0 -0 0 0 -0 -0 -0 -0 -0 0 -0 0 nan
nan -1 -0 0 1 1 0 1 1 0 0 0 0 0 1 0 0 0 0 0 0 0 0 0 0 0 -0 -0 0 1 1 nan
nan -1 -1 -0 1 1 1 0 0 0 0 -0 0 0 0 -0 -0 0 0 0 0 0 0 0 0 0 -0 -0 1 1 1 nan
nan nan nan nan nan nan nan nan nan nan nan nan nan nan nan nan nan nan nan nan nan nan nan nan nan nan nan nan nan nan nan nan
Wind_Speed
17 16 14 12 11 12 13 14 15 13 16 15 16 26 32 33 45 47 46 48 41 38 34 28 26 21 19 16 18 18 16 14
18 18 16 14 13 12 14 16 17 16 15 16 19 34 38 39 39 40 39 38 41 38 36 28 26 28 23 21 23 22 17 15
19 19 18 16 14 14 15 16 17 15 17 19 21 37 40 46 46 45 43 39 37 33 33 36 36 32 27 28 24 20 15 17
21 21 20 17 16 16 16 20 19 18 16 20 26 32 45 46 44 43 37 38 42 36 38 42 36 29 29 25 24 20 16 16
22 23 23 21 18 17 18 20 21 23 24 25 30 37 50 47 45 46 42 40 41 44 39 42 39 31 27 24 21 20 18 15
22 25 23 21 19 20 19 23 22 23 28 26 29 35 45 47 45 45 47 46 43 40 39 35 37 36 30 30 22 21 22 18
21 23 22 22 20 21 20 23 25 26 31 32 29 35 42 45 46 44 46 44 47 46 40 34 35 36 31 33 33 23 22 23
21 25 27 25 25 23 22 24 26 27 32 35 31 32 41 47 47 47 48 50 48 47 43 40 38 34 34 35 28 26 26 24
22 26 27 27 27 25 24 25 25 28 30 35 34 34 34 40 51 53 53 56 55 50 47 42 37 36 39 39 33 29 29 25
21 25 28 28 28 28 26 25 25 28 31 32 35 35 33 35 38 57 53 55 55 53 50 53 52 49 46 44 38 35 36 32
19 24 28 29 27 27 26 26 26 27 28 31 32 33 35 34 33 47 56 57 55 51 57 55 55 48 46 46 43 38 42 40
15 21 25 28 28 28 28 28 28 29 29 29 30 33 36 34 34 35 43 44 50 48 48 57 54 50 49 48 50 44 40 37
6 15 22 27 30 29 30 29 31 33 31 32 34 32 32 35 40 41 43 43 43 46 44 43 49 51 50 47 48 42 38 39
2 10 19 26 29 30 31 31 33 32 32 34 36 38 39 39 40 43 41 44 43 43 44 44 46 47 44 43 43 42 42 42
5 8 14 21 27 30 30 31 32 32 34 36 37 40 42 41 40 39 42 41 43 42 43 43 44 43 43 44 44 44 46 46
17 10 13 17 23 27 30 31 32 33 33 36 40 41 39 36 39 42 42 43 43 45 45 45 45 44 46 45 45 46 45 45
17 18 17 18 20 25 27 29 33 33 38 42 38 37 40 40 41 41 42 44 46 44 46 47 47 48 50 52 50 45 46 48
16 16 17 16 19 21 25 28 28 32 35 36 36 39 41 42 40 39 42 44 42 45 45 44 44 46 49 49 48 47 48 48
21 18 17 12 13 18 23 25 28 31 32 33 34 38 42 40 39 42 42 42 43 43 44 43 42 42 41 41 41 43 46 49
Wind_Direction
215 209 205 202 208 203 200 215 211 195 201 193 183 176 170 169 168 169 180 176 167 176 187 185 174 167 168 177 175 164 179 179
213 208 205 199 200 196 196 214 198 200 191 189 190 169 173 169 167 162 160 165 179 188 186 179 169 172 173 195 187 176 174 186
204 205 201 200 201 195 187 197 202 196 188 188 194 180 172 164 163 166 170 181 177 173 182 181 182 184 188 195 185 179 181 187
201 203 201 201 200 197 187 196 191 183 181 187 191 187 172 175 181 179 168 180 188 193 194 191 191 195 193 187 189 183 185 193
204 203 202 201 200 196 193 191 191 183 178 185 188 185 181 182 181 179 184 188 192 196 199 193 196 192 197 191 200 207 200 209
205 202 201 199 196 193 193 191 192 191 185 189 188 183 183 183 186 188 190 193 195 201 203 197 198 202 202 204 205 221 223 206
205 200 196 195 195 196 193 189 196 198 188 189 193 194 183 193 196 197 199 199 196 199 202 201 204 203 214 215 211 229 230 228
203 196 194 192 194 197 194 193 192 199 194 194 188 201 202 196 198 196 195 194 198 203 205 209 210 214 217 216 226 231 233 234
209 202 198 195 194 197 195 196 197 201 206 200 200 200 205 208 204 200 200 199 202 204 204 208 209 217 216 222 234 234 236 243
211 203 201 200 197 198 199 198 198 201 203 203 205 200 204 207 208 209 205 207 207 210 216 222 227 227 231 227 230 234 237 245
205 204 202 203 201 201 202 201 203 205 206 205 203 206 209 208 209 209 215 216 220 220 223 224 230 234 229 225 232 239 240 246
208 209 205 205 203 200 201 203 201 206 206 208 207 209 208 208 210 215 213 214 219 216 220 229 229 229 227 232 235 238 242 247
209 212 208 206 205 204 205 205 204 205 208 208 210 211 213 216 212 214 215 217 221 219 218 231 227 226 230 231 233 236 236 241
215 204 206 207 209 210 210 209 211 207 208 212 212 211 211 215 216 215 220 219 218 221 219 222 223 225 229 233 232 235 239 244
271 224 217 214 214 215 216 216 214 211 210 213 215 216 215 213 216 215 218 220 219 221 223 225 225 227 229 232 235 240 244 248
291 283 237 227 223 220 220 221 221 214 215 215 217 220 219 216 216 217 218 221 223 223 223 227 229 230 233 234 237 240 243 245
293 300 279 242 231 227 223 221 221 219 218 221 219 220 219 218 218 219 220 222 223 223 225 227 229 232 237 238 237 239 241 245
308 304 302 273 250 234 229 226 221 219 223 224 223 221 222 222 220 219 221 222 223 225 225 226 229 232 238 241 242 241 240 247
306 309 301 302 279 260 242 232 225 223 223 222 221 223 222 222 222 221 222 221 222 224 226 227 230 233 240 242 243 243 245 249
Height
1446 1449 1452 1454 1456 1457 1459 1459 1461 1465 1466 1469 1471 1470 1475 1479 1480 1484 1492 1500 1509 1520 1526 1531 1533 1537 1541 1546 1550 1554 1558 1561
1442 1446 1448 1451 1452 1454 1455 1456 1460 1462 1465 1467 1470 1471 1475 1480 1486 1491 1497 1507 1515 1520 1525 1528 1531 1536 1539 1545 1549 1553 1556 1560
1437 1441 1444 1446 1449 1451 1452 1454 1457 1460 1463 1466 1469 1473 1478 1483 1487 1492 1498 1506 1515 1521 1525 1529 1533 1537 1541 1545 1548 1550 1554 1557
1432 1437 1440 1442 1445 1447 1448 1450 1454 1459 1462 1464 1468 1474 1478 1484 1489 1493 1500 1507 1512 1518 1522 1526 1530 1535 1538 1542 1544 1548 1551 1552
1426 1432 1434 1437 1441 1443 1443 1446 1451 1455 1460 1462 1466 1469 1474 1481 1486 1491 1497 1504 1509 1514 1518 1522 1528 1532 1535 1538 1541 1543 1546 1547
1420 1426 1429 1434 1437 1439 1438 1442 1449 1453 1457 1460 1465 1470 1475 1480 1486 1491 1495 1501 1506 1511 1516 1520 1524 1528 1532 1534 1534 1539 1542 1544
1416 1422 1427 1430 1434 1437 1436 1438 1443 1449 1453 1457 1462 1466 1472 1476 1482 1487 1493 1498 1502 1508 1512 1516 1521 1524 1527 1530 1533 1536 1537 1540
1411 1417 1421 1425 1429 1431 1434 1436 1439 1443 1450 1454 1458 1463 1467 1471 1476 1481 1487 1492 1496 1501 1507 1511 1515 1520 1523 1526 1529 1532 1533 1535
1406 1411 1417 1421 1424 1427 1430 1432 1437 1438 1443 1449 1455 1459 1462 1468 1472 1475 1480 1484 1490 1496 1502 1506 1511 1516 1519 1522 1524 1527 1528 1531
1400 1406 1412 1417 1420 1423 1426 1430 1434 1437 1438 1443 1449 1454 1457 1460 1464 1471 1475 1480 1485 1491 1496 1500 1504 1509 1513 1516 1518 1521 1522 1526
1396 1402 1407 1412 1416 1420 1423 1426 1431 1435 1438 1437 1442 1447 1452 1456 1459 1463 1469 1475 1481 1485 1489 1493 1496 1501 1505 1509 1512 1513 1515 1518
1393 1397 1402 1408 1412 1414 1416 1419 1425 1430 1433 1437 1439 1441 1445 1451 1455 1458 1462 1468 1472 1477 1481 1484 1489 1494 1498 1501 1503 1506 1508 1510
1393 1395 1399 1403 1408 1410 1411 1414 1417 1423 1428 1431 1434 1438 1441 1443 1446 1451 1457 1461 1465 1469 1473 1477 1481 1485 1489 1491 1494 1497 1499 1502
1392 1393 1396 1399 1403 1406 1407 1408 1410 1416 1421 1424 1427 1430 1433 1435 1440 1446 1450 1454 1459 1463 1467 1469 1472 1476 1480 1482 1485 1488 1490 1492
1388 1391 1393 1395 1398 1401 1403 1405 1406 1410 1414 1417 1419 1422 1424 1429 1434 1438 1443 1447 1451 1455 1458 1462 1466 1469 1473 1476 1478 1480 1481 1482
1387 1387 1389 1391 1393 1395 1397 1401 1402 1404 1408 1410 1411 1414 1418 1423 1427 1432 1435 1438 1441 1445 1450 1454 1457 1460 1463 1466 1468 1470 1472 1472
1387 1387 1385 1386 1388 1389 1391 1393 1395 1399 1400 1400 1406 1409 1412 1414 1418 1422 1426 1429 1432 1436 1438 1441 1445 1447 1449 1453 1458 1460 1461 1462
1387 1386 1384 1382 1383 1385 1386 1387 1390 1391 1392 1396 1399 1402 1403 1405 1410 1413 1415 1419 1424 1425 1428 1431 1433 1436 1438 1442 1446 1450 1451 1451
1388 1386 1383 1381 1381 1381 1381 1383 1383 1384 1385 1387 1390 1393 1395 1398 1401 1403 1406 1409 1412 1415 1418 1422 1425 1426 1427 1430 1435 1439 1441 1441